SAS63D ESSA-LGTS

Flight info

Callsign SAS63D
Flight time 2h 45m
Altitude 33000
Route BABAP T316 NEPVA DCT PENOR/N0446F350 DCT SKARY DCT PARAK/N0453F370 DCT IBISI DCT KRATO DCT ERANA T389 ALIKO
Aircraft A320/M-SDE3FGHIRWY/LB1

Departure

Time 2026-05-01 12:38
Airport Stockholm-Arlanda Airport (ESSA)

Arrival

Time 2026-05-01 15:24
Airport Thessaloniki Macedonia International Airport (LGTS)
Time Latitude Longitude Altitude Speed Heading
2026-05-01 12:04 59.65330 17.93138 110 ft 0 kts 250°
2026-05-01 12:28 59.65338 17.93179 112 ft 4 kts 249°
2026-05-01 12:29 59.65347 17.93229 110 ft 4 kts 255°
2026-05-01 12:29 59.65349 17.93277 112 ft 4 kts 299°
2026-05-01 12:29 59.65344 17.93291 108 ft 0 kts 340°
2026-05-01 12:32 59.65346 17.93289 112 ft 2 kts 341°
2026-05-01 12:32 59.65373 17.93274 110 ft 6 kts 344°
2026-05-01 12:33 59.65423 17.93247 112 ft 8 kts 346°
2026-05-01 12:33 59.65478 17.93191 112 ft 10 kts 328°
2026-05-01 12:33 59.65502 17.93072 112 ft 11 kts 261°
2026-05-01 12:33 59.65478 17.92920 112 ft 12 kts 250°
2026-05-01 12:34 59.65449 17.92775 111 ft 12 kts 245°
2026-05-01 12:34 59.65445 17.92614 109 ft 14 kts 315°
2026-05-01 12:34 59.65537 17.92528 104 ft 14 kts 341°
2026-05-01 12:34 59.65641 17.92472 103 ft 15 kts 345°
2026-05-01 12:35 59.65739 17.92426 105 ft 14 kts 348°
2026-05-01 12:35 59.65840 17.92448 106 ft 15 kts 10°
2026-05-01 12:35 59.65937 17.92483 108 ft 14 kts 11°
2026-05-01 12:35 59.66036 17.92519 110 ft 15 kts 10°
2026-05-01 12:36 59.66140 17.92557 112 ft 15 kts 10°
2026-05-01 12:36 59.66256 17.92599 116 ft 17 kts 11°
2026-05-01 12:36 59.66370 17.92640 120 ft 16 kts 10°
2026-05-01 12:36 59.66476 17.92645 121 ft 15 kts 344°
2026-05-01 12:37 59.66561 17.92588 122 ft 13 kts 340°
2026-05-01 12:37 59.66620 17.92470 125 ft 14 kts 279°
2026-05-01 12:37 59.66596 17.92361 123 ft 9 kts 197°
2026-05-01 12:37 59.66504 17.92328 120 ft 31 kts 191°
2026-05-01 12:38 59.66057 17.92166 117 ft 95 kts 190°
2026-05-01 12:38 59.65226 17.91866 106 ft 145 kts 190°
2026-05-01 12:38 59.64108 17.91462 212 ft 172 kts 195°
2026-05-01 12:38 59.62977 17.90991 908 ft 166 kts 195°
2026-05-01 12:39 59.61812 17.90552 1279 ft 181 kts 195°
2026-05-01 12:39 59.60481 17.90239 1475 ft 205 kts 187°
2026-05-01 12:39 59.59013 17.90119 2003 ft 213 kts 185°
2026-05-01 12:39 59.57526 17.90139 2707 ft 218 kts 174°
2026-05-01 12:40 59.56092 17.91293 3212 ft 231 kts 143°
2026-05-01 12:40 59.55031 17.93762 3655 ft 247 kts 120°
2026-05-01 12:40 59.54378 17.96932 4273 ft 249 kts 102°
2026-05-01 12:40 59.54301 18.00291 4974 ft 249 kts 74°
2026-05-01 12:41 59.55099 18.03376 5238 ft 263 kts 45°
2026-05-01 12:41 59.56425 18.06000 5716 ft 275 kts 37°
2026-05-01 12:41 59.57904 18.08434 6435 ft 279 kts 34°
2026-05-01 12:41 59.59430 18.10848 7141 ft 283 kts 34°
2026-05-01 12:42 59.60897 18.13491 7867 ft 291 kts 45°
2026-05-01 12:42 59.62001 18.16904 8568 ft 301 kts 63°
2026-05-01 12:42 59.62734 18.20826 9285 ft 306 kts 67°
2026-05-01 12:42 59.63437 18.24830 9981 ft 311 kts 67°
2026-05-01 12:43 59.64145 18.28928 10432 ft 324 kts 67°
2026-05-01 12:43 59.64901 18.33288 10559 ft 346 kts 67°
2026-05-01 12:43 59.65706 18.37924 10698 ft 367 kts 68°
2026-05-01 12:43 59.66229 18.42942 11109 ft 381 kts 86°
2026-05-01 12:44 59.65893 18.48100 11646 ft 388 kts 107°
2026-05-01 12:44 59.64648 18.52936 12200 ft 393 kts 129°
2026-05-01 12:44 59.60215 18.58762 13332 ft 392 kts 164°
2026-05-01 12:45 59.55012 18.62264 14433 ft 398 kts 165°
2026-05-01 12:45 59.52372 18.64003 14945 ft 402 kts 165°
2026-05-01 12:45 59.49713 18.65757 15445 ft 405 kts 165°
2026-05-01 12:46 59.47033 18.67539 15943 ft 408 kts 165°
2026-05-01 12:46 59.44288 18.68914 16433 ft 407 kts 175°
2026-05-01 12:46 59.41472 18.69324 16948 ft 405 kts 186°
2026-05-01 12:46 59.38684 18.68748 17427 ft 403 kts 197°
2026-05-01 12:47 59.35977 18.67345 17936 ft 403 kts 201°
2026-05-01 12:47 59.33272 18.65833 18444 ft 407 kts 201°
2026-05-01 12:47 59.30539 18.64322 18924 ft 410 kts 201°
2026-05-01 12:47 59.27789 18.62808 19426 ft 412 kts 200°
2026-05-01 12:48 59.24948 18.61664 19918 ft 421 kts 191°
2026-05-01 12:48 59.22019 18.61182 20407 ft 425 kts 189°
2026-05-01 12:48 59.19063 18.60727 20875 ft 427 kts 189°
2026-05-01 12:48 59.16089 18.60267 21327 ft 430 kts 189°
2026-05-01 12:49 59.13099 18.59798 21757 ft 432 kts 189°
2026-05-01 12:49 59.10089 18.59322 22165 ft 435 kts 189°
2026-05-01 12:49 59.07067 18.58840 22570 ft 437 kts 189°
2026-05-01 12:49 59.04028 18.58359 22983 ft 439 kts 189°
2026-05-01 12:50 59.00972 18.57880 23372 ft 442 kts 189°
2026-05-01 12:50 58.97901 18.57402 23774 ft 444 kts 189°
2026-05-01 12:50 58.94812 18.56923 24110 ft 446 kts 189°
2026-05-01 12:50 58.91788 18.56118 24426 ft 443 kts 197°
2026-05-01 12:51 58.88750 18.54720 24746 ft 444 kts 198°
2026-05-01 12:51 58.85738 18.53309 25062 ft 446 kts 198°
2026-05-01 12:51 58.79682 18.50483 25664 ft 450 kts 197°
2026-05-01 12:52 58.76672 18.49078 25970 ft 451 kts 197°
2026-05-01 12:52 58.70552 18.46231 26586 ft 455 kts 197°
2026-05-01 12:52 58.67467 18.44807 26889 ft 456 kts 197°
2026-05-01 12:53 58.61300 18.41969 27729 ft 454 kts 197°
2026-05-01 12:53 58.58228 18.40560 28171 ft 453 kts 197°
2026-05-01 12:53 58.55168 18.39162 28591 ft 452 kts 197°
2026-05-01 12:54 58.52109 18.37767 29015 ft 451 kts 197°
2026-05-01 12:54 58.46026 18.34988 29892 ft 448 kts 197°
2026-05-01 12:54 58.42994 18.33607 30321 ft 447 kts 197°
2026-05-01 12:55 58.36943 18.30869 31039 ft 446 kts 197°
2026-05-01 12:55 58.33925 18.29504 31392 ft 446 kts 197°
2026-05-01 12:55 58.30903 18.28141 31733 ft 446 kts 197°
2026-05-01 12:56 58.27891 18.26783 32075 ft 446 kts 196°
2026-05-01 12:56 58.24875 18.25423 32403 ft 446 kts 196°
2026-05-01 12:56 58.21855 18.24061 32743 ft 446 kts 197°
2026-05-01 12:56 58.18838 18.22702 33082 ft 446 kts 196°
2026-05-01 12:57 58.15818 18.21348 33219 ft 446 kts 196°
2026-05-01 12:57 58.06760 18.17308 33242 ft 446 kts 196°
2026-05-01 12:58 58.00727 18.14620 33228 ft 445 kts 196°
2026-05-01 12:59 57.91674 18.10606 33243 ft 446 kts 196°
2026-05-01 12:59 57.82654 18.06646 33250 ft 446 kts 196°
2026-05-01 13:00 57.73590 18.02674 33237 ft 446 kts 195°
2026-05-01 13:01 57.64514 17.98722 33254 ft 447 kts 195°
2026-05-01 13:02 57.55422 17.94778 33254 ft 447 kts 195°
2026-05-01 13:07 56.89717 17.66867 33269 ft 449 kts 194°
2026-05-01 13:08 56.83628 17.64335 33272 ft 449 kts 194°
2026-05-01 13:08 56.77538 17.61810 33272 ft 449 kts 194°
2026-05-01 13:09 56.71452 17.59295 33274 ft 449 kts 194°
2026-05-01 13:09 56.65362 17.56778 33275 ft 449 kts 194°
2026-05-01 13:10 56.59253 17.54265 33273 ft 450 kts 194°
2026-05-01 13:10 56.53138 17.51764 33279 ft 450 kts 194°
2026-05-01 13:11 56.47024 17.49274 33277 ft 450 kts 194°
2026-05-01 13:11 56.40910 17.46779 33275 ft 451 kts 193°
2026-05-01 13:12 56.34791 17.44288 33286 ft 451 kts 193°
2026-05-01 13:12 56.28710 17.41840 33286 ft 451 kts 193°
2026-05-01 13:13 56.22575 17.39383 33287 ft 452 kts 193°
2026-05-01 13:13 56.16427 17.36916 33291 ft 454 kts 193°
2026-05-01 13:14 56.10254 17.34444 33292 ft 455 kts 193°
2026-05-01 13:14 56.04072 17.31965 33299 ft 455 kts 193°
2026-05-01 13:15 55.97895 17.29512 33297 ft 455 kts 193°
2026-05-01 13:15 55.91714 17.27076 33304 ft 455 kts 193°
2026-05-01 13:16 55.85569 17.24644 33306 ft 455 kts 193°
2026-05-01 13:16 55.79383 17.22211 33309 ft 455 kts 193°
2026-05-01 13:17 55.67003 17.17406 33312 ft 455 kts 189°
2026-05-01 13:18 55.60697 17.17233 33326 ft 454 kts 170°
2026-05-01 13:18 55.57593 17.18248 33312 ft 453 kts 167°
2026-05-01 13:18 55.51401 17.20359 33332 ft 454 kts 168°
2026-05-01 13:19 55.45203 17.22440 33326 ft 453 kts 168°
2026-05-01 13:20 55.35934 17.25527 33327 ft 454 kts 168°
2026-05-01 13:20 55.29740 17.27590 33329 ft 453 kts 168°
2026-05-01 13:21 55.20455 17.30674 33354 ft 453 kts 167°
2026-05-01 13:21 55.14242 17.32740 33342 ft 456 kts 167°
2026-05-01 13:22 55.08002 17.34802 33343 ft 456 kts 167°
2026-05-01 13:22 55.01771 17.36857 33348 ft 455 kts 167°
2026-05-01 13:23 54.95545 17.38903 33348 ft 455 kts 167°
2026-05-01 13:23 54.89321 17.40939 33348 ft 455 kts 167°
2026-05-01 13:24 54.83092 17.42975 33346 ft 455 kts 167°
2026-05-01 13:25 54.73747 17.45993 33352 ft 456 kts 167°
2026-05-01 13:25 54.67517 17.48002 33350 ft 456 kts 167°
2026-05-01 13:26 54.61281 17.50012 33347 ft 457 kts 167°
2026-05-01 13:26 54.55015 17.52027 33345 ft 458 kts 167°
2026-05-01 13:27 54.48743 17.54040 33347 ft 459 kts 167°
2026-05-01 13:27 54.39368 17.57027 33339 ft 459 kts 167°
2026-05-01 13:28 54.29955 17.60013 33338 ft 459 kts 167°
2026-05-01 13:29 54.17397 17.63985 33331 ft 459 kts 167°
2026-05-01 13:31 53.98539 17.69894 33331 ft 461 kts 167°
2026-05-01 13:32 53.82772 17.74789 33319 ft 461 kts 167°
2026-05-01 13:33 53.67001 17.79658 33321 ft 461 kts 166°
2026-05-01 13:34 53.54389 17.83524 33316 ft 461 kts 167°
2026-05-01 13:35 53.44961 17.86394 33319 ft 462 kts 166°
2026-05-01 13:36 53.35467 17.89260 33323 ft 462 kts 166°
2026-05-01 13:36 53.25969 17.92146 33326 ft 462 kts 166°
2026-05-01 13:37 53.19638 17.94055 33329 ft 462 kts 166°
2026-05-01 13:37 53.13312 17.95948 33335 ft 462 kts 166°
2026-05-01 13:38 53.03816 17.98790 33329 ft 462 kts 166°
2026-05-01 13:39 52.97487 18.00670 33327 ft 462 kts 166°
2026-05-01 13:39 52.91152 18.02544 33325 ft 463 kts 166°
2026-05-01 13:40 52.84809 18.04424 33327 ft 463 kts 166°
2026-05-01 13:40 52.78461 18.06295 33326 ft 464 kts 166°
2026-05-01 13:41 52.72151 18.08152 33326 ft 464 kts 166°
2026-05-01 13:41 52.65806 18.10012 33326 ft 464 kts 166°
2026-05-01 13:42 52.59453 18.11873 33333 ft 463 kts 166°
2026-05-01 13:42 52.53102 18.13721 33330 ft 464 kts 166°
2026-05-01 13:43 52.46746 18.15560 33331 ft 464 kts 166°
2026-05-01 13:43 52.40393 18.17398 33346 ft 464 kts 166°
2026-05-01 13:44 52.34027 18.19242 33326 ft 465 kts 166°
2026-05-01 13:44 52.27652 18.21083 33326 ft 465 kts 166°
2026-05-01 13:45 52.21274 18.22916 33326 ft 465 kts 166°
2026-05-01 13:45 52.14902 18.24743 33323 ft 465 kts 166°
2026-05-01 13:46 52.08529 18.26564 33325 ft 465 kts 166°
2026-05-01 13:46 52.02143 18.28384 33326 ft 466 kts 166°
2026-05-01 13:47 51.95757 18.30204 33326 ft 466 kts 166°
2026-05-01 13:47 51.89380 18.32018 33326 ft 465 kts 166°
2026-05-01 13:48 51.83030 18.33809 33332 ft 467 kts 166°
2026-05-01 13:48 51.76623 18.35603 33321 ft 467 kts 166°
2026-05-01 13:49 51.70213 18.37406 33332 ft 468 kts 166°
2026-05-01 13:49 51.63804 18.39204 33314 ft 468 kts 166°
2026-05-01 13:50 51.57392 18.40988 33330 ft 468 kts 166°
2026-05-01 13:50 51.50977 18.42778 33317 ft 468 kts 166°
2026-05-01 13:51 51.44553 18.44568 33338 ft 468 kts 166°
2026-05-01 13:51 51.38132 18.46330 33328 ft 468 kts 166°
2026-05-01 13:52 51.31726 18.48089 33322 ft 469 kts 166°
2026-05-01 13:52 51.25287 18.49861 33334 ft 470 kts 166°
2026-05-01 13:53 51.18846 18.51635 33331 ft 470 kts 166°
2026-05-01 13:53 51.09182 18.54270 33333 ft 470 kts 166°
2026-05-01 13:54 51.02735 18.56023 33333 ft 470 kts 166°
2026-05-01 13:54 50.96291 18.57781 33330 ft 470 kts 166°
2026-05-01 13:55 50.89848 18.59543 33328 ft 470 kts 166°
2026-05-01 13:55 50.84491 18.60994 33330 ft 470 kts 166°
2026-05-01 13:56 50.78045 18.62732 33330 ft 470 kts 166°
2026-05-01 13:56 50.70549 18.64743 33330 ft 470 kts 166°
2026-05-01 13:57 50.65145 18.66181 33329 ft 470 kts 166°
2026-05-01 13:57 50.58699 18.67902 33329 ft 470 kts 166°
2026-05-01 13:58 50.52247 18.69621 33333 ft 470 kts 166°
2026-05-01 13:58 50.45791 18.71332 33329 ft 470 kts 166°
2026-05-01 13:59 50.39341 18.73043 33329 ft 470 kts 166°
2026-05-01 13:59 50.32889 18.74742 33346 ft 470 kts 166°
2026-05-01 14:00 50.26464 18.76436 33329 ft 472 kts 165°
2026-05-01 14:00 50.19948 18.78153 33327 ft 472 kts 165°
2026-05-01 14:01 50.13508 18.79849 33330 ft 472 kts 165°
2026-05-01 14:01 50.06991 18.81560 33327 ft 472 kts 165°
2026-05-01 14:02 50.00547 18.83229 33332 ft 472 kts 165°
2026-05-01 14:02 49.94069 18.84910 33328 ft 472 kts 165°
2026-05-01 14:03 49.87591 18.86592 33330 ft 472 kts 165°
2026-05-01 14:03 49.81114 18.88270 33364 ft 472 kts 165°
2026-05-01 14:04 49.74620 18.89954 33328 ft 473 kts 165°
2026-05-01 14:04 49.68129 18.91620 33327 ft 473 kts 165°
2026-05-01 14:05 49.61626 18.93282 33329 ft 474 kts 165°
2026-05-01 14:05 49.55114 18.94947 33330 ft 474 kts 165°
2026-05-01 14:06 49.48608 18.96610 33327 ft 474 kts 165°
2026-05-01 14:06 49.42116 18.98331 33328 ft 472 kts 163°
2026-05-01 14:07 49.35734 19.00580 33323 ft 469 kts 160°
2026-05-01 14:08 49.26226 19.04298 33331 ft 471 kts 160°
2026-05-01 14:08 49.19841 19.06629 33326 ft 472 kts 161°
2026-05-01 14:09 49.13441 19.08884 33328 ft 472 kts 161°
2026-05-01 14:09 49.07044 19.11148 33326 ft 472 kts 161°
2026-05-01 14:10 49.00654 19.13435 33322 ft 472 kts 160°
2026-05-01 14:10 48.94259 19.15729 33321 ft 472 kts 160°
2026-05-01 14:11 48.87857 19.18007 33353 ft 473 kts 160°
2026-05-01 14:11 48.78239 19.21424 33316 ft 473 kts 160°
2026-05-01 14:12 48.71840 19.23679 33316 ft 472 kts 160°
2026-05-01 14:12 48.65442 19.25929 33314 ft 472 kts 160°
2026-05-01 14:13 48.60130 19.27799 33314 ft 472 kts 160°
2026-05-01 14:13 48.52653 19.30428 33313 ft 472 kts 160°
2026-05-01 14:14 48.46254 19.32666 33313 ft 472 kts 161°
2026-05-01 14:14 48.39851 19.34893 33307 ft 473 kts 160°
2026-05-01 14:15 48.33434 19.37124 33316 ft 473 kts 160°
2026-05-01 14:15 48.27016 19.39358 33315 ft 474 kts 160°
2026-05-01 14:16 48.20581 19.41578 33318 ft 475 kts 160°
2026-05-01 14:16 48.14146 19.43799 33321 ft 475 kts 160°
2026-05-01 14:17 48.07709 19.46023 33328 ft 475 kts 160°
2026-05-01 14:17 48.01278 19.48231 33343 ft 475 kts 160°
2026-05-01 14:18 47.94841 19.50439 33318 ft 475 kts 160°
2026-05-01 14:18 47.89487 19.52261 33320 ft 475 kts 160°
2026-05-01 14:19 47.81954 19.54823 33320 ft 475 kts 160°
2026-05-01 14:19 47.75513 19.57018 33317 ft 475 kts 160°
2026-05-01 14:20 47.65851 19.60292 33319 ft 475 kts 160°
2026-05-01 14:21 47.59403 19.62469 33375 ft 475 kts 160°
2026-05-01 14:21 47.52956 19.64638 33328 ft 475 kts 160°
2026-05-01 14:22 47.43276 19.67878 33326 ft 475 kts 160°
2026-05-01 14:22 47.36862 19.70031 33333 ft 475 kts 160°
2026-05-01 14:23 47.30417 19.72191 33326 ft 475 kts 160°
2026-05-01 14:23 47.23968 19.74342 33326 ft 475 kts 160°
2026-05-01 14:24 47.17514 19.76486 33377 ft 475 kts 160°
2026-05-01 14:24 47.11072 19.78622 33333 ft 476 kts 160°
2026-05-01 14:25 47.04614 19.80750 33329 ft 476 kts 160°
2026-05-01 14:25 46.98156 19.82880 33329 ft 476 kts 160°
2026-05-01 14:26 46.88471 19.86078 33326 ft 476 kts 160°
2026-05-01 14:27 46.82008 19.88195 33330 ft 476 kts 160°
2026-05-01 14:27 46.75552 19.90307 33365 ft 476 kts 159°
2026-05-01 14:28 46.69082 19.92414 33516 ft 477 kts 159°
2026-05-01 14:28 46.65885 19.93450 33930 ft 476 kts 159°
2026-05-01 14:28 46.62611 19.94510 34318 ft 475 kts 159°
2026-05-01 14:28 46.59387 19.95553 34623 ft 475 kts 159°
2026-05-01 14:29 46.56205 19.96582 34904 ft 475 kts 159°
2026-05-01 14:29 46.52980 19.97626 35192 ft 475 kts 160°
2026-05-01 14:30 46.43205 20.00815 35326 ft 486 kts 160°
2026-05-01 14:30 46.39900 20.01884 35319 ft 487 kts 160°
2026-05-01 14:31 46.29957 20.05066 35321 ft 488 kts 160°
2026-05-01 14:31 46.23321 20.07192 35317 ft 488 kts 160°
2026-05-01 14:32 46.16703 20.09355 35328 ft 485 kts 156°
2026-05-01 14:32 46.10396 20.12546 35327 ft 479 kts 152°
2026-05-01 14:33 46.04128 20.15843 35325 ft 480 kts 152°
2026-05-01 14:33 45.97854 20.19132 35358 ft 480 kts 152°
2026-05-01 14:34 45.91579 20.22407 35348 ft 480 kts 152°
2026-05-01 14:34 45.85299 20.25667 35333 ft 480 kts 152°
2026-05-01 14:35 45.79021 20.28923 35330 ft 480 kts 152°
2026-05-01 14:35 45.72741 20.32172 35336 ft 480 kts 153°
2026-05-01 14:36 45.66464 20.35417 35332 ft 480 kts 153°
2026-05-01 14:36 45.60196 20.38651 35323 ft 478 kts 153°
2026-05-01 14:37 45.53937 20.41874 35315 ft 478 kts 153°
2026-05-01 14:37 45.47675 20.45081 35322 ft 478 kts 154°
2026-05-01 14:38 45.41417 20.48277 35327 ft 478 kts 154°
2026-05-01 14:38 45.35165 20.51472 35326 ft 477 kts 154°
2026-05-01 14:39 45.28916 20.54661 35344 ft 477 kts 155°
2026-05-01 14:39 45.23721 20.57310 35336 ft 477 kts 155°
2026-05-01 14:40 45.17466 20.60476 35326 ft 477 kts 155°
2026-05-01 14:40 45.11210 20.63642 35322 ft 477 kts 155°
2026-05-01 14:41 45.04952 20.66805 35317 ft 477 kts 155°
2026-05-01 14:41 44.98698 20.69955 35331 ft 477 kts 156°
2026-05-01 14:42 44.92435 20.73100 35316 ft 478 kts 156°
2026-05-01 14:42 44.86163 20.76243 35314 ft 478 kts 156°
2026-05-01 14:43 44.79894 20.79372 35302 ft 479 kts 156°
2026-05-01 14:43 44.73612 20.82510 35302 ft 479 kts 156°
2026-05-01 14:44 44.67334 20.85643 35326 ft 479 kts 157°
2026-05-01 14:44 44.57911 20.90316 35315 ft 478 kts 158°
2026-05-01 14:45 44.48509 20.94970 35312 ft 477 kts 158°
2026-05-01 14:46 44.42247 20.98070 35312 ft 477 kts 158°
2026-05-01 14:46 44.32858 21.02682 35325 ft 477 kts 158°
2026-05-01 14:47 44.26601 21.05753 35318 ft 476 kts 158°
2026-05-01 14:48 44.17224 21.10328 35307 ft 476 kts 159°
2026-05-01 14:48 44.07898 21.14887 35301 ft 475 kts 159°
2026-05-01 14:49 43.95417 21.20953 35306 ft 475 kts 159°
2026-05-01 14:50 43.82931 21.26988 35299 ft 475 kts 159°
2026-05-01 14:51 43.73578 21.31503 35291 ft 475 kts 160°
2026-05-01 14:52 43.64216 21.35985 35314 ft 474 kts 160°
2026-05-01 14:53 43.54869 21.40455 35308 ft 474 kts 160°
2026-05-01 14:53 43.48638 21.43421 35296 ft 474 kts 160°
2026-05-01 14:54 43.42398 21.46388 35301 ft 474 kts 160°
2026-05-01 14:54 43.36154 21.49359 35298 ft 475 kts 161°
2026-05-01 14:55 43.29910 21.52328 35285 ft 475 kts 161°
2026-05-01 14:55 43.23652 21.55285 35288 ft 476 kts 161°
2026-05-01 14:56 43.17386 21.58236 35287 ft 476 kts 161°
2026-05-01 14:56 43.11131 21.61185 35291 ft 476 kts 161°
2026-05-01 14:57 43.04868 21.64132 35276 ft 476 kts 161°
2026-05-01 14:57 42.95483 21.68537 35290 ft 476 kts 161°
2026-05-01 14:58 42.89203 21.71377 35300 ft 475 kts 162°
2026-05-01 14:58 42.82912 21.74122 35280 ft 475 kts 163°
2026-05-01 14:59 42.76610 21.76882 35277 ft 476 kts 163°
2026-05-01 14:59 42.70314 21.79661 35289 ft 476 kts 163°
2026-05-01 15:00 42.60862 21.83821 35279 ft 476 kts 163°
2026-05-01 15:01 42.54594 21.86564 35282 ft 476 kts 163°
2026-05-01 15:01 42.48293 21.89317 35284 ft 475 kts 163°
2026-05-01 15:02 42.42002 21.92056 35283 ft 474 kts 163°
2026-05-01 15:02 42.35721 21.94791 35267 ft 473 kts 163°
2026-05-01 15:03 42.29457 21.97519 35263 ft 473 kts 163°
2026-05-01 15:03 42.23194 22.00233 35259 ft 473 kts 164°
2026-05-01 15:04 42.16928 22.02940 35255 ft 473 kts 164°
2026-05-01 15:04 42.10663 22.05648 35251 ft 473 kts 164°
2026-05-01 15:05 42.04368 22.08193 35231 ft 471 kts 171°
2026-05-01 15:05 41.97904 22.09426 35243 ft 469 kts 175°
2026-05-01 15:06 41.91432 22.10591 35237 ft 469 kts 175°
2026-05-01 15:06 41.88197 22.11175 35028 ft 468 kts 175°
2026-05-01 15:06 41.84968 22.11755 34471 ft 470 kts 175°
2026-05-01 15:06 41.81702 22.12337 33447 ft 475 kts 175°
2026-05-01 15:07 41.78422 22.12920 32543 ft 476 kts 175°
2026-05-01 15:07 41.75132 22.13504 31567 ft 478 kts 174°
2026-05-01 15:07 41.71844 22.14093 30659 ft 476 kts 174°
2026-05-01 15:07 41.68570 22.14680 29769 ft 473 kts 174°
2026-05-01 15:08 41.65323 22.15264 29055 ft 466 kts 173°
2026-05-01 15:08 41.62134 22.15840 28429 ft 459 kts 174°
2026-05-01 15:08 41.58991 22.16405 27812 ft 453 kts 174°
2026-05-01 15:08 41.55885 22.16959 27186 ft 448 kts 174°
2026-05-01 15:09 41.52814 22.17503 26585 ft 443 kts 174°
2026-05-01 15:09 41.49774 22.18038 25976 ft 438 kts 174°
2026-05-01 15:09 41.46793 22.18853 25299 ft 438 kts 165°
2026-05-01 15:09 41.43874 22.19957 24707 ft 434 kts 165°
2026-05-01 15:10 41.40982 22.21050 24131 ft 431 kts 165°
2026-05-01 15:10 41.35264 22.23212 22928 ft 422 kts 165°
2026-05-01 15:10 41.32455 22.24274 22399 ft 417 kts 165°
2026-05-01 15:11 41.29674 22.25324 21862 ft 414 kts 165°
2026-05-01 15:11 41.24182 22.27389 20848 ft 408 kts 165°
2026-05-01 15:11 41.21457 22.28411 20332 ft 406 kts 165°
2026-05-01 15:12 41.18747 22.29430 19848 ft 403 kts 165°
2026-05-01 15:12 41.13373 22.31452 18817 ft 400 kts 165°
2026-05-01 15:12 41.10731 22.32441 18257 ft 399 kts 165°
2026-05-01 15:13 41.04329 22.38884 16418 ft 389 kts 126°
2026-05-01 15:14 41.01233 22.44516 15209 ft 372 kts 126°
2026-05-01 15:14 40.99717 22.47278 14608 ft 372 kts 126°
2026-05-01 15:14 40.96734 22.52752 13308 ft 364 kts 126°
2026-05-01 15:15 40.93789 22.58116 11979 ft 356 kts 125°
2026-05-01 15:15 40.90831 22.63404 10720 ft 358 kts 125°
2026-05-01 15:16 40.87937 22.68529 9421 ft 342 kts 126°
2026-05-01 15:16 40.85083 22.73481 8096 ft 329 kts 125°
2026-05-01 15:17 40.82371 22.78107 6831 ft 309 kts 125°
2026-05-01 15:18 40.78603 22.84618 4931 ft 287 kts 126°
2026-05-01 15:18 40.77433 22.86676 4470 ft 273 kts 125°
2026-05-01 15:19 40.73103 22.90351 3616 ft 235 kts 164°
2026-05-01 15:19 40.70170 22.91287 3473 ft 202 kts 164°
2026-05-01 15:19 40.68836 22.91715 3318 ft 192 kts 165°
2026-05-01 15:20 40.66290 22.92530 2799 ft 184 kts 165°
2026-05-01 15:20 40.65072 22.92919 2542 ft 174 kts 165°
2026-05-01 15:20 40.63963 22.93272 2342 ft 153 kts 165°
2026-05-01 15:21 40.62933 22.93601 2135 ft 153 kts 166°
2026-05-01 15:21 40.61900 22.93931 1915 ft 154 kts 165°
2026-05-01 15:21 40.60863 22.94262 1704 ft 153 kts 166°
2026-05-01 15:21 40.59831 22.94591 1489 ft 150 kts 166°
2026-05-01 15:22 40.57940 22.95192 1093 ft 136 kts 167°
2026-05-01 15:22 40.57012 22.95487 857 ft 134 kts 167°
2026-05-01 15:22 40.56117 22.95768 660 ft 134 kts 167°
2026-05-01 15:23 40.55200 22.96058 477 ft 136 kts 165°
2026-05-01 15:23 40.54278 22.96347 311 ft 137 kts 165°
2026-05-01 15:23 40.53349 22.96651 153 ft 138 kts 164°
2026-05-01 15:23 40.52443 22.96945 26 ft 123 kts 167°
2026-05-01 15:24 40.51744 22.97168 22 ft 78 kts 165°
2026-05-01 15:24 40.51441 22.97263 25 ft 33 kts 166°
2026-05-01 15:24 40.51206 22.97338 23 ft 36 kts 167°
2026-05-01 15:24 40.51023 22.97405 22 ft 13 kts 141°
2026-05-01 15:25 40.50961 22.97497 22 ft 14 kts 92°
2026-05-01 15:25 40.50990 22.97568 25 ft 14 kts 42°
2026-05-01 15:25 40.51068 22.97566 25 ft 6 kts 346°
2026-05-01 15:25 40.51108 22.97553 26 ft 7 kts 346°
2026-05-01 15:26 40.51154 22.97539 25 ft 7 kts 346°
2026-05-01 15:26 40.51181 22.97529 25 ft 2 kts 344°
2026-05-01 15:26 40.51201 22.97523 25 ft 4 kts 346°
2026-05-01 15:26 40.51237 22.97512 26 ft 7 kts 347°
2026-05-01 15:27 40.51278 22.97499 26 ft 6 kts 346°
2026-05-01 15:27 40.51311 22.97488 26 ft 6 kts 346°
2026-05-01 15:27 40.51358 22.97473 28 ft 8 kts 346°
2026-05-01 15:28 40.51498 22.97428 25 ft 11 kts 346°
2026-05-01 15:28 40.51542 22.97414 27 ft 1 kts 347°
2026-05-01 15:28 40.51543 22.97414 27 ft 0 kts 347°
2026-05-01 15:30 40.51598 22.97397 26 ft 12 kts 347°
2026-05-01 15:31 40.52028 22.97263 22 ft 16 kts 347°
2026-05-01 15:31 40.52246 22.97192 24 ft 17 kts 347°
2026-05-01 15:32 40.52402 22.97234 27 ft 9 kts 29°
2026-05-01 15:32 40.52494 22.97245 29 ft 8 kts 45°
2026-05-01 15:33 40.52531 22.97295 28 ft 1 kts 46°
2026-05-01 15:34 40.52531 22.97296 25 ft 0 kts 46°